SHIELDS 1

Last updated on Tue Jul 01 2025 00:03:44 GMT+0000 (Coordinated Universal Time)

1 43850U 18104B 25181.58369120 .00023702 00000+0 26829-3 0 9998 2 43850 85.0135 21.7434 0008181 73.8990 286.3173 15.62230896364734
UTC large
Height (km)
Speed (km/s)
/
Latitude / Longitude
Inclination (degrees)
Orbital Period (minutes)
Azimuth
Elevation
Range (km)
Doppler Factor

Next 0 passes for location: London (51.5072 / 0.1276)

Sorry there are no passes over London.